Location: West Cummington
(42.4920°N, 72.9680°W)
Time: 14:41:16
(UTC-05:00)

Cosmos 2221 - Visible Passes

Search period start: 23 January 2018 00:00
Search period end: 02 February 2018 00:00
Orbit: 593 x 617 km, 82.5° (Epoch: 22 January)

Date Brightness Start Highest point End Pass type
(mag) Time Alt. Az. Time Alt. Az. Time Alt. Az.
23 Jan 4.2 05:33:46 10° SSE 05:37:39 35° E 05:41:35 10° NNE visible
23 Jan 2.8 17:16:48 10° N 17:21:11 77° W 17:25:32 10° S visible
24 Jan 3.1 05:46:19 10° S 05:50:31 61° E 05:54:47 10° NNE visible
24 Jan 3.9 17:29:54 10° NNW 17:34:04 44° W 17:38:14 10° SSW visible
25 Jan 2.4 05:59:10 10° S 06:03:26 78° W 06:07:46 10° N visible
25 Jan 5.0 17:43:13 10° NNW 17:46:54 27° W 17:50:34 10° SSW visible
26 Jan 5.6 04:36:53 10° ESE 04:39:18 15° E 04:41:45 10° NE visible
26 Jan 2.8 06:12:20 10° SSW 06:16:26 45° WNW 06:20:36 10° N visible
26 Jan 5.6 17:56:55 10° NW 17:59:40 17° W 18:02:26 10° SW visible
27 Jan 4.8 04:48:36 10° SE 04:52:03 24° E 04:55:33 10° NE visible
27 Jan 3.4 06:25:50 10° SW 06:29:31 27° WNW 06:33:14 10° NNW visible
28 Jan 3.8 05:00:52 10° SSE 05:04:52 41° E 05:08:56 10° NNE visible
29 Jan 2.7 05:13:30 10° S 05:17:45 71° E 05:22:04 10° NNE visible
30 Jan 5.9 03:53:18 10° E 03:53:47 10° E 03:54:18 10° ENE visible
30 Jan 2.4 05:26:27 10° SSW 05:30:42 67° W 05:35:01 10° N visible
31 Jan 5.2 04:03:41 10° SE 04:06:30 17° E 04:09:20 10° NE visible
31 Jan 2.9 05:39:41 10° SSW 05:43:44 39° WNW 05:47:49 10° N visible
01 Feb 4.4 04:15:36 10° SSE 04:19:16 28° E 04:22:59 10° NNE visible
01 Feb 3.5 05:53:18 10° SW 05:56:48 24° WNW 06:00:22 10° NNW visible
